Regional Weather Roundup
Issued by NWS Midland/Odessa, TX

Skip options and go directly to product.
Home | Oldest Version | Previous Version | Current Version | All | Graphics & Text | Save Text | Print | Product List | Glossary On

Skip product version selection by date and time.   
642
ASUS44 KMAF 241110
RWRMAF
MIDLAND AREA WEATHER ROUNDUP
NATIONAL WEATHER SERVICE MIDLAND TX
600 AM CDT WED AUG 24 2016

...IN SOUTHWEST TEXAS AND SOUTHEAST NEW MEXICO...

CITY           SKY/WX    TMP DP  RH WIND       PRES   REMARKS
ALPINE         CLOUDY    69  62  79 SW6       30.25R
ANDREWS        NOT AVBL
ARTESIA        CLOUDY    64  64 100 S13       30.13S
BIG SPRING     PTCLDY    73  66  79 SE6       30.13R
CARLSBAD       CLOUDY    63  61  93 S10       30.13R
DRYDEN           N/A     73  66  78 E3        30.07R
FORT STOCKTON  MOCLDY    72  65  78 W13G21    30.13R
GUAD PASS      NOT AVBL
HOBBS          LGT RAIN  63  63 100 S8        30.21R
MARFA          CLOUDY   N/A N/A N/A W8        30.24R
MIDLAND AIRPK  PTCLDY    71  66  84 N7        30.12R
MIDLAND INTL   PTCLDY    70  66  87 N6        30.10S
ODESSA         MOCLDY    69  65  86 NE10      30.11F
PECOS          CLOUDY    65  62  87 NW8       30.15S
PRESIDIO       NOT AVBL
SEMINOLE       RAIN      65  63  91 W12G23    30.17R
SNYDER           N/A     68  64  85 S6        30.11S
WINK           LGT RAIN  64  61  90 N10       30.12F
$$
...OTHER STATIONS IN TEXAS...

CITY           SKY/WX    TMP DP  RH WIND       PRES   REMARKS
ABILENE        CLEAR     72  67  84 S12       30.08R
AMARILLO       CLOUDY    68  63  84 SE7       30.11S
AUSTIN         PTCLDY    77  75  93 S10       30.10F
BROWNSVILLE    CLEAR     75  74  96 S5        30.09S
CORPUS CHRISTI PTCLDY    77  76  96 S6        30.08S
DALLAS FTW     PTCLDY    76  70  82 S9        30.07S
DEL RIO        CLEAR     74  71  91 SE7       30.04F
EL PASO        MOCLDY    68  64  87 SE7       30.10S
HOUSTON INT    PTCLDY    77  75  93 S3        30.11S
LUBBOCK        CLOUDY    65  62  90 SE7       30.09F
SAN ANGELO     CLEAR     73  68  84 S5        30.07S
SAN ANTONIO    MOCLDY    76  73  91 S12       30.11F
WACO           MOCLDY    75  74  96 S8        30.09F
WICHITA FALLS  NOT AVBL
$$
...OTHER LOCATIONS IN NEW MEXICO...

CITY           SKY/WX    TMP DP  RH WIND       PRES   REMARKS
ALAMAGORDO     MOCLDY    66  59  77 SW7       30.13R
ALBUQUERQUE    PTCLDY    62  50  64 N5        30.20F
CANNON AFB     CLOUDY    66  55  67 SW6       30.13S
CLOVIS         CLOUDY    64  54  68 SW8       30.14R
HOLLOMAN AFB   MOCLDY    69  57  65 S9        30.10S
ROSWELL        CLOUDY    64  59  83 S12       30.12F
RUIDOSO          N/A     55  45  67 S5        30.30R
SANTA FE       CLEAR     49  46  90 NW5       30.23F
TRUTH OR CONSE CLEAR     62  48  60 W5        30.16S
TUCUMCARI      CLOUDY    68  56  65 W10       30.12R
$$

USA.gov is the U.S. government's official web portal to all federal, state and local government web resources and services.